Back to catalog

FENGYUN 1C DEB

AliveSSO
NORAD 30064·DEBRIS·🇨🇳 China

Launched May 10, 1999 from Taiyuan Satellite Launch Center

Loading…

Next Passes (next 24 hours)

TLE

FreshSource: Space-Track

Epoch: Sep 14, 2026, 11:55 UTC

1 30064U 99025PR  26257.49714674  .00000169  00000-0  10781-3 0  9998
2 30064  98.6584 265.1819 0066362  44.1193 108.4181 14.14437880 14033

Track FENGYUN 1C DEB in real time with AllMySat

Download on the App Store